Hlavní strana
METAR-TAF:

METAR-TAF

Letiště :

Remada, Tunisko

zeměpisná šířka: 32-19N, zeměpisná délka: 010-24E, výška: 300 m

Aktuální stav počasí

Zpráva byla vytvořena před 22 minutami, v 12:00 UTC
Východní vítr 6 kt, proměnlivý mezi severoseverovýchodním a jihojihovýchodním
Teplota 18°C
Vlhkost vzduchu 49%
Tlak 1024 hPa
Viditelnost 10 km a více
Žádná oblačnost pod 1500 m, nevyskytují se cumulonimby.

METAR: DTTD 011200Z 08006KT 030V150 CAVOK 18/07 Q1024

Čas: 13:22 (12:22 UTC)


TAF: chybějící

Stav a předpovědi počasí z více než 4 000 letišť (zprávy METAR a TAF).

Červené a žluté tečky na mapě představují dostupné meteorologické stanice.

Když kurzor umístíte na tečku, zobrazí se název stanice.

Pak kliknutím zobrazíte stav a předpověď počasí.

Chcete-li změnit mapu, kliknutím na zelené tlačítko se znaménkem +mapu přiblížíte, kliknutím na zelené tlačítko se znaménkem – mapu oddálíte a kliknutím na zelené šipky přejdete na sousední mapy.


METAR-TAF: